Akron, OH

4:30 PM EDT on June 26, 2017 (GMT -0400)
Akron Fulton International

Weather History for KAKR - June, 2013

Change the Weather History Date:

Sunday, June 9, 2013

  Actual Average (KCAK) Record (KCAK)
Temperature  
Mean Temperature 70 °F -  
Max Temperature 79 °F 78 °F 93 °F (1914)
Min Temperature 60 °F 56 °F 39 °F (1913)
Cooling Degree Days 4    
Growing Degree Days 20 (Base 50)    
Moisture  
Dew Point 56 °F    
Average Humidity 64    
Maximum Humidity 78    
Minimum Humidity 48    
Precipitation  
Precipitation 0.00 in - - ()
Sea Level Pressure  
Sea Level Pressure 30.08 in    
Wind  
Wind Speed 3 mph (East)    
Max Wind Speed 8 mph    
Max Gust Speed -    
Visibility 10 miles    
Events Rain    
Averages and records for this station are not official NWS values.
T = Trace of Precipitation, MM = Missing Value Source: NWS Daily Summary

Daily Weather History Graph

Daily Weather History Graph

Search for Another Location

Airport or City:

Trip Planner

Search our weather history database for the weather conditions in past years. The results will help you decide how hot, cold, wet, or windy it might be!

Date:

Astronomy

Jun. 09, 2013 Rise Set
Actual Time 5:53 AM EDT 8:57 PM EDT
Civil Twilight 5:20 AM EDT 9:30 PM EDT
Nautical Twilight 4:37 AM EDT 10:13 PM EDT
Astronomical Twilight 3:47 AM EDT 11:03 PM EDT
Moon 6:49 AM EDT (6/9) 9:42 PM EDT (6/9)
Length of Visible Light 16h 10m
Length of Day
15h 03m
New Moon, 1% of the Moon is Illuminated
Jun 9
New Moon
Jun 16
First Quarter
Jun 23
Full
Jun 30
Last Quarter
Jul 8
New

Hourly Weather History & Observations

Time (EDT) Temp. Dew Point Humidity Pressure Visibility Wind Dir Wind Speed Gust Speed Precip Events Conditions
12:54 AM 60.1 °F 52.0 °F 75% 30.11 in 10.0 mi ESE 3.5 mph - N/A   Mostly Cloudy
1:54 AM 60.1 °F 52.0 °F 75% 30.11 in 10.0 mi East 3.5 mph - N/A   Mostly Cloudy
2:54 AM 60.1 °F 53.1 °F 78% 30.11 in 10.0 mi Calm Calm - N/A   Overcast
3:54 AM 61.0 °F 53.1 °F 75% 30.10 in 10.0 mi East 5.8 mph - N/A   Overcast
4:54 AM 61.0 °F 53.1 °F 75% 30.11 in 9.0 mi Calm Calm - N/A   Overcast
5:54 AM 60.1 °F 53.1 °F 78% 30.12 in 9.0 mi East 4.6 mph - N/A   Overcast
6:54 AM 61.0 °F 54.0 °F 78% 30.13 in 8.0 mi Calm Calm - N/A   Overcast
7:54 AM 63.0 °F 55.0 °F 75% 30.14 in 8.0 mi ESE 4.6 mph - N/A   Overcast
8:54 AM 64.0 °F 55.0 °F 73% 30.15 in 10.0 mi ESE 4.6 mph - N/A   Overcast
9:54 AM 66.0 °F 57.0 °F 73% 30.14 in 10.0 mi ESE 3.5 mph - N/A   Overcast
10:54 AM 69.1 °F 57.9 °F 68% 30.13 in 10.0 mi Calm Calm - N/A   Mostly Cloudy
11:54 AM 73.0 °F 57.0 °F 57% 30.12 in 10.0 mi Variable 6.9 mph - N/A   Partly Cloudy
12:54 PM 75.0 °F 55.0 °F 50% 30.11 in 10.0 mi Variable 6.9 mph - N/A   Clear
1:54 PM 75.9 °F 55.0 °F 48% 30.09 in 10.0 mi Variable 4.6 mph - N/A   Partly Cloudy
2:54 PM 78.1 °F 57.0 °F 48% 30.06 in 10.0 mi East 8.1 mph - N/A   Clear
3:54 PM 78.1 °F 57.9 °F 50% 30.05 in 10.0 mi East 3.5 mph - N/A   Mostly Cloudy
4:54 PM 79.0 °F 59.0 °F 50% 30.03 in 10.0 mi Variable 4.6 mph - N/A   Clear
5:54 PM 78.1 °F 59.0 °F 52% 30.01 in 10.0 mi East 8.1 mph - N/A   Partly Cloudy
6:54 PM 77.0 °F 59.0 °F 54% 30.01 in 10.0 mi Variable 4.6 mph - N/A   Scattered Clouds
7:54 PM 75.0 °F 57.9 °F 55% 30.01 in 10.0 mi Variable 4.6 mph - N/A   Clear
8:54 PM 73.9 °F 59.0 °F 59% 30.01 in 10.0 mi East 3.5 mph - N/A   Partly Cloudy
9:54 PM 73.0 °F 59.0 °F 61% 30.00 in 10.0 mi Calm Calm - N/A   Partly Cloudy
10:54 PM 71.1 °F 60.1 °F 68% 30.01 in 10.0 mi Calm Calm - 0.00 in Rain Light Rain
11:54 PM 71.1 °F 59.0 °F 66% 29.98 in 10.0 mi Calm Calm - 0.00 in   Partly Cloudy